www.pogodaiklimat.ru

Погода и климат >> Архив погоды >> Беларусь >> Гродно


АРХИВ ПОГОДЫ в Гродно

Время (UTC), дата Ветер
(напр.,м/с)
 
Видим.   Явления Облачность Т
(С)
Тd
(С)
f
(%)
Тe
(С)
Тes
(С)
Комфортность P
(гПа)
Po
(гПа)
Тmin
(С)
Tmax
(С)
R
(мм)
R24
(мм)
S
(см)
09 13.09 С 2 11 км 8/3 600 м
[Cu hum Ac trans Ci fib]
+18.1 +8.9 55 +19 +22 тепло 1020.1 1002.6
12 13.09 СЗ 3 12 км 8/3 1000 м
[Cu hum Ac trans Ci fib]
+20.1 +5.6 39 +21 +24 комфорт 1019.6 1002.3
15 13.09 С 3 14 км 8/0
[Ac trans Ci fib]
+19.2 +8.4 50 +20 +21 тепло 1019.1 1001.7
18 13.09 С 3 12 км 8/0
[Ac trans Ci fib]
+15.1 +9.9 71 +14 +14 тепло 1019.2 1001.5 +20.8
21 13.09 С 2 11 км 9/0
[Ac trans]
+14.3 +9.9 75 +14 +14 тепло 1019.1 1001.4
00 14.09 С 2 10 км 9/0
[Ac trans]
+13.3 +10.3 82 +13 +13 тепло 1019.2 1001.4
03 14.09 С 1 8000 м слабый ливневой дождь 9/8 800 м
[Cb calv Ac trans]
+12.7 +11.4 92 +13 +13 тепло 1019.4 1001.6
06 14.09 СВ 2 7000 м слабый ливневой дождь 9/8 900 м
[Cb calv Ac trans]
+12.5 +10.7 89 +12 +12 тепло 1019.6 1001.8 +12.5 3
09 14.09 СВ 2 12 км в посл. час ливневой дождь 9/6 800 м
[Cb calv Ac trans]
+13.5 +10.9 84 +13 +14 по сезону 1020.5 1002.6
12 14.09 СВ 2 13 км {ливн. осадки} 8/6 900 м
[Cu hum Ac trans]
+16.5 +10.5 68 +17 +19 тепло 1020.0 1002.4
15 14.09 СВ 2 14 км 8/6 900 м
[Sc Ac trans]
+17.8 +9.7 59 +18 +19 тепло 1019.4 1002.0
18 14.09 штиль 0 12 км 8/0
[Ac trans Ci fib]
+14.3 +11.5 83 +14 +14 тепло 1019.7 1002.0 +18.1 1
21 14.09 штиль 0 11 км 3/0
[Ac trans]
+13.4 +11.3 87 +13 +13 тепло 1019.8 1002.0
00 15.09 штиль 0 8000 м туман поземный 3/0
[Ci fib]
+10.7 +10.2 97 +10 +10 по сезону 1019.5 1001.6
03 15.09 С 1 9000 м дымка 8/0
[Ac trans]
+10.5 +9.9 96 +10 +10 по сезону 1019.1 1001.2
06 15.09 С 1 9000 м дымка 8/0
[Ac trans]
+11.1 +10.5 96 +11 +12 тепло 1018.7 1000.8 +8.2
09 15.09 В 2 10 км 9/0
[Ac trans]
+14.7 +11.3 80 +14 +18 тепло 1018.0 1000.3
12 15.09 штиль 0 12 км 8/4 600 м
[Sc Ac trans]
+18.3 +11.8 66 +19 +22 тепло 1017.1 999.7
15 15.09 штиль 0 12 км 10/3 600 м
[Sc Ac trans]
+17.8 +10.5 62 +18 +18 тепло 1016.6 999.2
18 15.09 З 1 10 км 10/6 600 м
[Sc Ac trans]
+15.2 +13.6 90 +16 +16 тепло 1017.4 999.7 +18.8
21 15.09 З 1 8000 м дымка 8/0
[Ac trans]
+12.9 +12.2 96 +13 +13 тепло 1018.0 1000.2
00 16.09 З 3 8000 м дымка 6/0
[Ac trans]
+12.5 +12.0 97 +11 +11 тепло 1018.8 1001.0
03 16.09 З 4 8000 м дымка 8/0
[Ac trans Ci fib]
+12.5 +11.2 92 +10 +10 по сезону 1019.0 1001.2
06 16.09 З 4 10 км 4/0
[Ac trans Ci fib]
+13.0 +10.3 84 +11 +12 тепло 1020.4 1002.5 +11.7
09 16.09 СЗ 5 12 км 8/6 800 м
[Cu hum Ci fib]
+16.3 +9.2 63 +15 +17 тепло 1022.2 1004.5
12 16.09 З 4 12 км 8/8 1000 м
[Cu hum]
+17.1 +7.1 52 +17 +18 тепло 1022.5 1004.8
15 16.09 СЗ 3 13 км 6/4 1000 м
[Cu hum Ci fib]
+17.6 +6.8 49 +18 +18 тепло 1022.5 1004.8
18 16.09 З 2 10 км 3/0
[Ci fib]
+13.4 +6.8 64 +13 +13 тепло 1022.9 1005.0 +17.9
21 16.09 ЮЗ 2 10 км 3/0
[Ci fib]
+9.2 +5.6 78 +8 +8 по сезону 1023.7 1005.5
00 17.09 Ю 3 10 км 3/0
[Ci fib]
+8.4 +6.4 87 +6 +6 по сезону 1024.0 1005.8
03 17.09 Ю 3 10 км 3/0
[Ci fib]
+7.6 +6.5 93 +5 +5 прохладно 1023.5 1005.2
06 17.09 Ю 2 10 км 3/0
[Ci fib]
+9.6 +6.8 83 +8 +9 по сезону 1023.0 1004.8 +7.1
09 17.09 ЮЗ 5 11 км 4/0
[Ac trans Ci fib]
+17.3 +8.8 57 +17 +20 тепло 1022.5 1004.8
12 17.09 З 5 12 км 8/4 1000 м
[Cu hum Ci sp]
+20.0 +8.5 47 +21 +23 комфорт 1021.3 1003.9
15 17.09 ЮЗ 4 14 км 8/0
[Ci sp]
+20.3 +9.7 51 +22 +22 комфорт 1019.7 1002.4
18 17.09 ЮЗ 3 12 км 8/0
[Ci fib]
+16.6 +9.8 64 +16 +16 тепло 1020.0 1002.4 +20.6
21 17.09 ЮЗ 3 11 км 6/0
[Ci fib]
+14.9 +9.5 70 +14 +14 тепло 1019.9 1002.2
00 18.09 ЮЗ 2 10 км 6/0
[Ci fib]
+13.5 +10.4 82 +13 +13 тепло 1020.0 1002.2
03 18.09 З 3 7000 м дымка 6/0
[Ci fib]
+12.4 +9.9 85 +11 +11 тепло 1020.2 1002.4
06 18.09 ЮВ 1 8000 м дымка 9/0
[Ci fib]
+12.1 +9.9 86 +12 +13 тепло 1020.7 1002.8 +11.0
09 18.09 Ю 2 12 км 8/0
[Ci fib]
+19.5 +12.0 62 +21 +27 комфорт 1020.6 1003.2
12 18.09 З 4 14 км 8/0
[Ci fib]
+24.3 +10.2 41 +25 +29 комфорт 1019.3 1002.2
15 18.09 ЮЗ 3 14 км 8/0
[Ci fib]
+23.5 +9.5 41 +24 +25 комфорт 1018.7 1001.5
18 18.09 Ю 2 12 км 6/0
[Ci fib]
+17.3 +11.2 67 +18 +18 тепло 1018.7 1001.1 +24.6
21 18.09 Ю 3 10 км 6/0
[Ci fib]
+14.1 +12.3 89 +13 +13 тепло 1018.8 1001.1
00 19.09 Ю 3 10 км 4/0
[Ci fib]
+13.3 +12.2 93 +12 +12 тепло 1019.0 1001.2
03 19.09 Ю 4 10 км 3/0
[Ci fib]
+13.8 +12.7 93 +12 +12 тепло 1018.1 1000.4
06 19.09 Ю 4 8000 м дымка 4/0
[Ci fib]
+15.3 +13.1 87 +14 +15 тепло 1018.1 1000.4 +13.3
09 19.09 Ю 3 10 км 6/0
[Ci fib]
+22.3 +14.3 61 +26 +31 жарко 1017.4 1000.2
12 19.09 ЮЗ 4 10 км 6/0
[Ci fib]
+26.2 +13.9 47 +28 +32 жарко 1016.9 999.9
15 19.09 З 4 12 км 8/0
[Ac trans Ci fib]
+25.4 +12.8 46 +27 +28 жарко 1016.7 999.7
18 19.09 ЮЗ 2 10 км 6/0
[Ci fib]
+20.2 +13.8 67 +23 +23 комфорт 1017.3 1000.0 +27.0
21 19.09 ЮЗ 2 10 км 4/0
[Ci fib]
+17.2 +12.5 74 +18 +18 тепло 1018.0 1000.4
00 20.09 Ю 2 8000 м дымка ясно +16.4 +13.3 82 +17 +17 тепло 1018.1 1000.5
03 20.09 Ю 3 7000 м дымка ясно +14.8 +13.1 90 +14 +14 тепло 1018.1 1000.4

 

Местоположение метеостанции Гродно (Гродненская область, Беларусь): широта 53.60 долгота 24.04 высота над уровнем моря 134 м.

В архиве по умолчанию представлена погода в Гродно за последнюю неделю. Архивные данные за месяц целиком и за предыдущие месяцы, начиная с января 2011 года, Вы можете получить, выбрав интересующий диапазон дат из раскрывающегося списка и нажав кнопку "Ввод!".


*Определитесь, кто Вы:
робот инопланетянин человек

Внимание! Время в таблицах - всемирное. Для получения местного времени необходимо прибавить поправку, которая в Гродно равна 3 ч.

Смотрите также архив погоды в соседних городах и на ближайших метеорологических станциях:

Погода в Волковыске (Гродненская область, Беларусь) (55 км)
Погода в Varena (Литва) (80 км)
Погода в Bialystok (Польша) (80 км)
Погода в Alytus (Литва) (90 км)
Погода в Лиде (Гродненская область, Беларусь) (91 км)
Погода в Suwalki (Польша) (93 км)
Погода в Marijampole (Литва) (113 км)
Погода в Новогрудке (Гродненская область, Беларусь) (119 км)
Погода в Пружанах (Брестская область, Беларусь) (121 км)
Погода в Виштынце (Калининградская область, Россия) (127 км)

Пояснения к столбцам:

Ветер - указаны скорость ветра в м/с - средняя за 10 мин, порывы в срок и между сроками (в фигурных скобках) и направление, откуда дует ветер: С - северный, СВ - северо-восточный, В - восточный, ЮВ - юго-восточный, Ю - южный, ЮЗ - юго-западный, З - западный, СЗ - северо-западный.
Видимость - горизонтальная дальность видимости в метрах или километрах. При видимости от 1 до 10 км при отсутствии осадков обычно наблюдается дымка, при ухудшении видимости до 1 км и менее - туман. В сухую погоду видимость может ухудшаться дымом, пылью или мглою.
Явления - указаны атмосферные явления, наблюдавшиеся в срок или в последний час перед сроком; фигурными скобками обозначены явления, наблюдавшиеся между сроками (за 1-3 часа до срока); квадратными скобками обозначены град или гололедные отложения с указанием их диаметра в мм.
Облачность - указаны через наклонную черту общая и нижняя облачность в баллах и высота нижней границы облаков в метрах; квадратными скобками обозначены формы облаков: Ci - перистые, Cs - перисто-слоистые, Cc - перисто-кучевые, Ac - высококучевые, As - высокослоистые, Sc - слоисто-кучевые, Ns - слоисто-дождевые, Cu - кучевые, Cb - кучево-дождевые. Подробнее классификацию облаков см. в Атласе облаков (PDF).
T - Температура воздуха - температура, измеренная на высоте 2 м над землей.
Td - Температура точки росы - температура, при понижении до которой содержащийся в воздухе водяной пар достигнет насыщения.
f - Относительная влажность воздуха - влажноcть воздуха, измеренная на высоте 2 м над землей.
Te - Эффективная температура - температура, которую ощущает одетый по сезону человек в тени. Характеристика душности погоды. При расчете учитывается влияние влажности воздуха и скорости ветра на теплоощущения человека.
Tes - Эффективная температура на солнце - температура, которую ощущает человек, с поправкой на солнечный нагрев. Характеристика знойности погоды. Зависит от высоты солнца над горизонтом, облачности и скорости ветра. Ночью, в пасмурную погоду, а также при ветре 12 м/с и более поправка равна нулю.
P - Атмосферное давление - приведенное к уровню моря атмосферное давление.
Po - Атмосферное давление - измеренное на уровне метеостанции атмосферное давление.
Tmin - Минимальная температура - минимум температуры воздуха на высоте 2 м над землей.
Tmax - Максимальная температура - максимум температуры воздуха на высоте 2 м над землей.
R - Количество осадков - Количество выпавших осадков за период времени, мм. При наведении курсора мыши на число - период времени, за который выпало указанное количество осадков.
R24 - Количество осадков - Количество выпавших осадков за 24 часа, мм.
S - Снежный покров - Высота снежного покрова, см. При наведении курсора мыши на число - состояние снежного покрова и степень покрытия местности в баллах.